Temp
-4 -5 -5 -6 -6 -5 -5 -5 -5 -6 -6 -5 -5 -5 -4 -4 -4 -4 -4 -5 -5 -5 -5 -5 -5 -5 -4 -4 -4 -4 -4 -4 -4 -4 -4 -3 -3 -3 -3 -3 -4 -4 -4 -4 -4 -4 -4 -5 -5 -5 -5 -5 -5 -5 -5 -5 -6 -6 -6 -6 -6 -6 -6
-4 -5 -5 -5 -5 -5 -5 -5 -5 -6 -6 -5 -5 -5 -4 -4 -4 -4 -4 -5 -5 -5 -5 -5 -5 -5 -5 -4 -4 -4 -4 -4 -4 -4 -4 -4 -3 -3 -3 -4 -4 -4 -4 -4 -4 -4 -4 -4 -4 -4 -5 -5 -5 -5 -5 -5 -5 -6 -6 -6 -6 -6 -6
-4 -5 -5 -5 -5 -5 -5 -5 -5 -6 -6 -6 -5 -5 -5 -4 -4 -4 -4 -5 -5 -5 -4 -4 -5 -5 -5 -5 -4 -4 -4 -4 -4 -4 -4 -4 -4 -3 -4 -4 -4 -4 -4 -4 -4 -4 -4 -4 -4 -4 -5 -5 -5 -5 -5 -5 -5 -5 -6 -6 -6 -6 -6
-4 -5 -5 -4 -5 -5 -5 -5 -5 -6 -6 -5 -5 -5 -5 -5 -4 -4 -4 -4 -4 -4 -4 -4 -4 -4 -4 -4 -4 -4 -4 -4 -4 -4 -4 -4 -4 -4 -4 -4 -4 -4 -4 -4 -4 -4 -4 -4 -4 -4 -4 -5 -5 -5 -5 -5 -5 -5 -5 -6 -6 -6 -6
-4 -5 -5 -4 -4 -5 -5 -5 -5 -5 -5 -5 -5 -5 -5 -5 -4 -4 -4 -4 -4 -4 -4 -4 -4 -4 -4 -4 -4 -4 -4 -4 -4 -4 -4 -4 -4 -4 -4 -4 -4 -4 -4 -4 -4 -4 -4 -4 -4 -4 -4 -4 -5 -5 -5 -5 -5 -5 -5 -5 -6 -6 -6
-4 -4 -5 -4 -4 -5 -5 -5 -5 -5 -6 -6 -5 -5 -5 -5 -4 -4 -4 -4 -4 -4 -4 -4 -4 -4 -4 -4 -4 -4 -4 -4 -4 -4 -4 -4 -4 -4 -4 -4 -4 -4 -4 -4 -4 -4 -4 -4 -4 -4 -4 -4 -5 -5 -5 -5 -5 -5 -5 -5 -6 -6 -6
-4 -4 -5 -4 -5 -5 -5 -5 -6 -6 -6 -6 -5 -5 -5 -5 -5 -4 -4 -4 -4 -4 -4 -4 -4 -4 -4 -4 -4 -4 -4 -4 -5 -5 -5 -5 -5 -5 -4 -4 -4 -4 -4 -4 -4 -4 -4 -4 -4 -4 -4 -4 -5 -5 -5 -5 -5 -5 -5 -5 -5 -6 -6
-4 -4 -4 -5 -5 -5 -5 -6 -6 -6 -6 -6 -5 -6 -6 -5 -5 -4 -4 -4 -4 -4 -4 -4 -4 -4 -4 -4 -4 -4 -4 -4 -5 -4 -4 -4 -5 -5 -4 -4 -4 -4 -4 -4 -4 -4 -4 -4 -4 -4 -4 -4 -4 -5 -5 -5 -5 -5 -5 -5 -6 -6 -6
-5 -4 -4 -5 -5 -5 -6 -6 -6 -6 -6 -6 -6 -6 -6 -6 -5 -5 -4 -4 -4 -4 -4 -4 -4 -4 -4 -4 -4 -4 -4 -4 -4 -4 -4 -4 -5 -5 -5 -4 -4 -4 -4 -4 -4 -4 -4 -4 -4 -4 -4 -4 -4 -5 -5 -5 -5 -5 -6 -6 -6 -6 -6
-4 -5 -5 -5 -5 -5 -6 -6 -6 -6 -6 -6 -6 -6 -5 -6 -6 -5 -5 -4 -4 -4 -4 -4 -4 -4 -4 -4 -4 -4 -4 -4 -4 -4 -4 -4 -4 -4 -4 -4 -4 -4 -4 -4 -4 -5 -5 -4 -4 -4 -4 -4 -4 -4 -5 -5 -5 -5 -6 -6 -6 -6 -6
-5 -5 -5 -5 -4 -5 -5 -5 -6 -6 -6 -6 -6 -6 -6 -6 -6 -5 -5 -4 -4 -4 -4 -4 -4 -4 -4 -4 -4 -4 -4 -4 -4 -4 -4 -4 -4 -4 -4 -4 -4 -4 -4 -4 -4 -4 -4 -4 -4 -4 -4 -4 -4 -4 -4 -5 -5 -5 -6 -6 -6 -6 -6
-5 -5 -5 -5 -4 -5 -5 -5 -6 -6 -6 -6 -6 -6 -6 -6 -6 -5 -5 -4 -4 -4 -4 -4 -4 -4 -4 -4 -4 -4 -4 -5 -5 -5 -5 -5 -5 -4 -4 -4 -4 -4 -4 -4 -4 -4 -4 -4 -4 -4 -4 -4 -4 -4 -4 -4 -5 -5 -6 -6 -6 -6 -7
-5 -6 -5 -5 -5 -5 -6 -6 -6 -6 -6 -6 -6 -6 -6 -6 -6 -5 -5 -4 -4 -4 -4 -4 -5 -5 -5 -5 -5 -5 -5 -5 -5 -5 -5 -5 -5 -4 -4 -4 -4 -4 -4 -4 -4 -4 -4 -4 -4 -4 -4 -4 -4 -4 -4 -4 -5 -5 -5 -6 -6 -6 -7
-6 -6 -5 -5 -5 -5 -6 -6 -6 -6 -6 -6 -6 -6 -6 -6 -6 -6 -5 -5 -4 -4 -4 -4 -5 -5 -5 -5 -5 -5 -5 -5 -5 -5 -5 -5 -5 -4 -4 -4 -5 -5 -5 -4 -5 -5 -5 -5 -4 -4 -4 -4 -4 -4 -4 -5 -5 -5 -5 -5 -6 -6 -6
-6 -6 -5 -5 -5 -5 -5 -6 -6 -6 -6 -6 -6 -6 -6 -6 -6 -6 -6 -6 -5 -5 -5 -5 -5 -5 -5 -5 -5 -5 -5 -5 -5 -5 -5 -5 -5 -5 -5 -5 -5 -5 -5 -5 -5 -5 -5 -5 -5 -4 -4 -4 -4 -4 -4 -4 -4 -5 -5 -5 -5 -6 -6
-6 -6 -5 -5 -5 -5 -5 -6 -6 -6 -6 -6 -6 -6 -6 -6 -6 -6 -6 -6 -6 -6 -6 -6 -6 -6 -6 -6 -6 -5 -5 -5 -5 -5 -5 -5 -5 -5 -5 -5 -5 -5 -5 -5 -5 -5 -5 -5 -5 -5 -5 -4 -4 -4 -4 -4 -5 -5 -5 -5 -5 -5 -6
-6 -6 -5 -5 -5 -5 -6 -6 -6 -6 -6 -6 -6 -6 -6 -6 -6 -6 -6 -6 -6 -6 -6 -6 -6 -6 -6 -6 -6 -6 -6 -5 -5 -5 -5 -5 -5 -5 -5 -5 -5 -5 -5 -5 -5 -5 -5 -5 -5 -5 -5 -5 -5 -5 -5 -5 -5 -5 -5 -5 -5 -5 -5
-6 -6 -7 -6 -6 -6 -6 -6 -6 -6 -6 -6 -6 -6 -6 -6 -6 -6 -6 -6 -6 -6 -6 -6 -6 -7 -7 -6 -6 -6 -6 -6 -6 -5 -5 -5 -5 -5 -5 -5 -5 -5 -5 -5 -5 -5 -5 -5 -5 -5 -5 -5 -5 -5 -5 -5 -5 -5 -5 -5 -5 -5 -5
-7 -7 -7 -6 -6 -5 -5 -5 -6 -6 -6 -6 -6 -6 -6 -6 -6 -6 -6 -6 -6 -6 -6 -6 -6 -6 -6 -6 -6 -6 -6 -6 -6 -6 -6 -5 -5 -5 -5 -5 -5 -5 -5 -5 -5 -5 -5 -5 -5 -5 -6 -6 -6 -6 -6 -6 -6 -6 -6 -6 -6 -6 -5
-6 -6 -6 -5 -5 -5 -5 -5 -5 -5 -5 -6 -6 -6 -6 -6 -6 -6 -6 -6 -6 -6 -6 -6 -6 -6 -6 -6 -6 -6 -6 -6 -6 -6 -6 -6 -6 -5 -5 -5 -5 -5 -5 -5 -5 -5 -6 -6 -6 -6 -6 -6 -6 -6 -6 -6 -6 -6 -6 -6 -6 -6 -6
-5 -5 -5 -5 -5 -5 -5 -5 -5 -5 -5 -5 -5 -6 -6 -6 -6 -6 -6 -6 -6 -6 -6 -6 -6 -6 -7 -7 -7 -6 -6 -6 -6 -6 -6 -6 -6 -5 -5 -5 -5 -5 -5 -5 -5 -6 -6 -6 -6 -6 -6 -6 -6 -6 -7 -7 -7 -7 -7 -7 -7 -7 -6
-5 -5 -5 -5 -5 -5 -5 -5 -5 -5 -5 -5 -5 -5 -6 -6 -6 -6 -6 -6 -6 -6 -6 -6 -6 -7 -7 -7 -7 -7 -7 -6 -7 -7 -6 -6 -6 -5 -5 -6 -6 -6 -6 -6 -6 -6 -6 -6 -6 -6 -6 -6 -6 -6 -7 -7 -7 -7 -7 -7 -7 -7 -7
-5 -5 -5 -5 -5 -5 -5 -5 -5 -5 -5 -5 -5 -6 -6 -6 -6 -6 -6 -6 -6 -6 -6 -6 -6 -6 -7 -7 -7 -7 -7 -7 -7 -7 -6 -6 -6 -6 -6 -6 -6 -6 -6 -6 -6 -6 -6 -7 -7 -7 -7 -7 -7 -7 -7 -7 -7 -7 -7 -7 -7 -7 -7
-5 -5 -5 -5 -5 -5 -4 -4 -4 -5 -5 -5 -6 -6 -6 -6 -6 -6 -6 -6 -6 -6 -6 -6 -6 -7 -7 -7 -7 -7 -7 -7 -7 -7 -7 -6 -6 -6 -6 -6 -6 -6 -6 -6 -6 -6 -7 -7 -7 -7 -7 -7 -7 -7 -7 -7 -7 -7 -7 -7 -7 -7 -7
-5 -5 -5 -5 -5 -5 -4 -4 -5 -5 -5 -5 -6 -6 -6 -6 -6 -6 -6 -6 -6 -6 -6 -7 -7 -7 -7 -7 -7 -7 -7 -7 -7 -7 -7 -7 -7 -6 -6 -6 -6 -6 -6 -6 -6 -7 -7 -7 -7 -7 -7 -7 -7 -7 -7 -7 -7 -7 -7 -7 -7 -7 -7
-5 -6 -6 -5 -5 -5 -5 -5 -5 -5 -5 -5 -5 -6 -6 -6 -6 -6 -6 -6 -6 -6 -7 -7 -7 -7 -7 -7 -7 -7 -7 -7 -7 -7 -7 -7 -7 -7 -7 -7 -6 -6 -6 -7 -7 -7 -7 -7 -7 -7 -7 -7 -7 -7 -7 -7 -7 -7 -7 -7 -7 -7 -7
-6 -6 -6 -6 -5 -5 -5 -5 -5 -5 -5 -5 -5 -5 -5 -6 -6 -6 -6 -6 -6 -6 -7 -7 -7 -7 -7 -7 -7 -7 -7 -7 -7 -7 -7 -7 -7 -7 -7 -7 -7 -6 -6 -6 -7 -7 -7 -7 -7 -7 -7 -7 -7 -7 -7 -7 -7 -7 -7 -7 -7 -7 -7
-6 -6 -6 -5 -5 -5 -5 -5 -5 -5 -5 -5 -5 -5 -5 -5 -5 -6 -6 -6 -6 -6 -6 -6 -6 -6 -6 -7 -7 -7 -7 -7 -7 -7 -7 -7 -7 -7 -7 -7 -7 -6 -6 -6 -6 -6 -7 -7 -7 -7 -7 -7 -7 -7 -7 -7 -7 -7 -7 -7 -7 -7 -7
-6 -6 -5 -5 -5 -5 -5 -5 -5 -5 -5 -5 -5 -5 -5 -5 -5 -5 -5 -5 -5 -6 -5 -5 -6 -6 -6 -6 -7 -7 -7 -7 -7 -7 -7 -7 -7 -7 -7 -7 -7 -7 -6 -6 -6 -7 -7 -7 -7 -7 -7 -7 -7 -7 -7 -7 -7 -7 -7 -7 -7 -7 -7
-6 -6 -5 -5 -5 -6 -5 -5 -5 -5 -5 -5 -5 -5 -5 -5 -5 -5 -5 -5 -5 -5 -5 -5 -5 -5 -5 -6 -6 -6 -7 -7 -7 -7 -7 -7 -7 -7 -7 -7 -7 -7 -7 -6 -7 -7 -7 -7 -7 -7 -7 -7 -7 -7 -7 -7 -7 -7 -7 -7 -7 -7 -7
-7 -7 -6 -6 -6 -5 -5 -5 -5 -5 -5 -5 -5 -5 -5 -5 -5 -5 -5 -5 -5 -5 -5 -5 -5 -5 -5 -5 -5 -6 -6 -6 -6 -6 -7 -7 -7 -7 -7 -7 -7 -7 -7 -7 -7 -7 -7 -7 -7 -7 -7 -7 -7 -7 -7 -7 -7 -7 -7 -7 -7 -7 -7
-7 -7 -7 -6 -6 -5 -5 -5 -5 -5 -5 -5 -5 -5 -5 -5 -5 -5 -5 -5 -5 -5 -5 -5 -5 -5 -5 -5 -5 -5 -5 -5 -6 -6 -6 -6 -7 -7 -7 -6 -6 -6 -6 -6 -6 -6 -7 -7 -7 -7 -7 -7 -7 -7 -7 -7 -7 -7 -7 -7 -7 -7 -8
-7 -7 -7 -7 -6 -6 -5 -5 -5 -5 -5 -5 -5 -5 -5 -5 -5 -5 -5 -5 -5 -5 -5 -5 -5 -5 -5 -5 -5 -5 -5 -5 -5 -5 -6 -6 -6 -6 -6 -6 -6 -6 -6 -6 -6 -6 -6 -6 -7 -7 -7 -7 -7 -7 -7 -7 -7 -7 -7 -8 -8 -7 -7
-7 -7 -7 -7 -6 -6 -5 -5 -5 -5 -5 -5 -5 -5 -5 -5 -5 -5 -5 -5 -5 -5 -5 -5 -5 -5 -5 -5 -5 -5 -5 -5 -5 -5 -5 -5 -5 -5 -6 -6 -6 -6 -6 -6 -6 -6 -6 -6 -7 -7 -7 -7 -7 -7 -7 -7 -7 -7 -7 -8 -8 -8 -7
-7 -7 -7 -7 -7 -6 -6 -6 -6 -6 -6 -5 -5 -5 -5 -5 -5 -5 -5 -5 -5 -5 -5 -5 -5 -5 -4 -5 -5 -5 -5 -5 -5 -5 -5 -5 -5 -5 -5 -6 -6 -6 -6 -6 -6 -6 -6 -6 -6 -6 -6 -7 -7 -7 -7 -7 -7 -7 -7 -7 -7 -7 -8
-6 -7 -7 -7 -7 -7 -6 -6 -6 -6 -6 -6 -6 -5 -5 -5 -5 -5 -5 -5 -5 -5 -5 -5 -5 -5 -5 -5 -5 -5 -5 -5 -5 -5 -5 -4 -4 -5 -5 -5 -5 -5 -6 -6 -6 -6 -6 -6 -6 -6 -6 -6 -7 -7 -7 -7 -7 -7 -7 -7 -7 -7 -8
-6 -6 -7 -7 -7 -7 -7 -6 -6 -6 -6 -6 -6 -6 -6 -6 -5 -5 -5 -5 -5 -5 -5 -5 -5 -5 -5 -5 -5 -5 -5 -5 -5 -5 -4 -4 -5 -5 -5 -5 -5 -5 -5 -6 -6 -6 -6 -6 -6 -6 -7 -7 -7 -7 -7 -7 -7 -7 -7 -7 -7 -7 -8
-7 -6 -6 -7 -7 -7 -7 -6 -6 -6 -6 -6 -6 -6 -6 -6 -6 -5 -5 -5 -5 -5 -5 -5 -5 -5 -5 -5 -5 -5 -5 -5 -5 -4 -4 -5 -5 -5 -5 -5 -5 -5 -5 -6 -6 -6 -6 -6 -6 -7 -7 -7 -7 -7 -7 -7 -7 -7 -7 -7 -7 -8 -8
Height
5877 5880 5882 5884 5884 5886 5887 5889 5890 5890 5892 5894 5895 5897 5899 5901 5904 5905 5907 5909 5910 5912 5913 5914 5916 5918 5920 5922 5925 5928 5930 5932 5933 5935 5936 5938 5940 5941 5943 5944 5946 5947 5948 5948 5949 5949 5950 5950 5951 5951 5952 5952 5953 5953 5953 5953 5953 5953 5952 5952 5952 5952 5952
5875 5877 5880 5882 5883 5884 5886 5887 5888 5889 5890 5892 5894 5896 5898 5900 5902 5904 5906 5907 5909 5910 5911 5912 5913 5915 5918 5921 5924 5926 5929 5931 5933 5934 5936 5937 5939 5940 5942 5943 5945 5946 5947 5948 5948 5949 5949 5950 5950 5951 5951 5952 5952 5952 5952 5952 5952 5952 5952 5952 5952 5952 5951
5872 5875 5877 5881 5882 5883 5884 5886 5887 5888 5889 5891 5893 5894 5896 5898 5900 5902 5904 5906 5907 5908 5909 5910 5911 5913 5916 5919 5922 5925 5928 5930 5932 5933 5935 5936 5938 5940 5941 5943 5944 5945 5946 5947 5948 5948 5949 5949 5950 5950 5951 5951 5951 5951 5952 5952 5952 5951 5951 5951 5951 5951 5951
5869 5872 5875 5878 5879 5880 5882 5884 5886 5887 5888 5890 5892 5893 5894 5896 5898 5900 5902 5904 5906 5907 5908 5909 5910 5911 5914 5917 5920 5924 5927 5929 5931 5932 5934 5935 5937 5939 5940 5942 5943 5944 5945 5946 5947 5947 5948 5948 5949 5949 5950 5950 5950 5951 5951 5951 5951 5951 5951 5950 5950 5950 5950
5866 5869 5872 5874 5876 5878 5880 5882 5884 5886 5888 5890 5891 5892 5893 5895 5897 5899 5901 5903 5906 5907 5907 5907 5908 5910 5912 5915 5918 5922 5925 5927 5929 5931 5933 5934 5936 5937 5939 5940 5941 5943 5944 5945 5946 5947 5947 5948 5948 5948 5949 5949 5950 5950 5950 5950 5950 5950 5950 5950 5949 5949 5949
5863 5866 5869 5872 5874 5876 5877 5880 5882 5884 5886 5888 5890 5891 5893 5895 5896 5898 5900 5902 5905 5906 5907 5907 5907 5909 5911 5914 5917 5920 5923 5925 5928 5930 5932 5933 5935 5936 5937 5939 5940 5941 5942 5943 5944 5945 5946 5947 5948 5948 5948 5948 5949 5949 5949 5949 5949 5949 5949 5949 5948 5948 5948
5860 5864 5867 5870 5873 5874 5875 5878 5880 5882 5884 5886 5887 5889 5891 5893 5895 5897 5899 5902 5905 5906 5907 5907 5907 5908 5910 5912 5915 5918 5921 5924 5926 5928 5930 5932 5933 5934 5935 5937 5938 5939 5941 5942 5943 5944 5945 5946 5946 5947 5947 5947 5947 5947 5947 5947 5947 5947 5947 5947 5947 5947 5947
5858 5861 5866 5870 5872 5873 5874 5876 5878 5880 5882 5884 5885 5888 5890 5892 5894 5896 5899 5901 5904 5906 5906 5905 5905 5906 5908 5910 5913 5916 5919 5922 5924 5926 5928 5930 5931 5933 5934 5935 5937 5938 5939 5940 5941 5942 5943 5944 5944 5945 5946 5946 5946 5946 5946 5945 5945 5945 5945 5945 5945 5945 5945
5855 5858 5863 5868 5871 5872 5873 5874 5876 5879 5881 5882 5884 5886 5887 5889 5892 5895 5898 5901 5903 5905 5905 5903 5903 5905 5906 5909 5912 5915 5917 5920 5922 5924 5926 5928 5930 5931 5933 5934 5935 5937 5938 5939 5940 5941 5941 5942 5942 5943 5943 5944 5944 5944 5943 5943 5943 5943 5943 5943 5944 5944 5944
5853 5855 5859 5864 5868 5870 5871 5873 5875 5877 5879 5880 5882 5884 5886 5888 5890 5893 5897 5900 5902 5904 5903 5901 5902 5903 5905 5908 5911 5913 5916 5918 5921 5923 5925 5927 5928 5930 5931 5933 5934 5935 5936 5937 5938 5939 5939 5940 5940 5941 5941 5941 5941 5941 5941 5940 5940 5940 5941 5941 5942 5942 5943
5851 5853 5856 5859 5864 5867 5869 5871 5874 5876 5878 5879 5881 5883 5885 5887 5889 5892 5896 5899 5901 5902 5902 5900 5900 5902 5904 5907 5909 5912 5915 5917 5919 5921 5923 5925 5927 5928 5930 5931 5933 5934 5935 5935 5936 5937 5937 5938 5938 5939 5939 5939 5938 5938 5938 5938 5938 5938 5939 5939 5940 5940 5941
5850 5851 5853 5856 5860 5863 5866 5869 5872 5875 5876 5878 5880 5883 5885 5886 5888 5891 5894 5897 5899 5901 5901 5899 5899 5900 5903 5906 5908 5911 5913 5916 5918 5920 5921 5923 5925 5926 5928 5929 5931 5932 5933 5934 5934 5935 5936 5936 5936 5937 5937 5937 5936 5936 5936 5936 5936 5937 5937 5937 5937 5938 5938
5848 5850 5851 5854 5857 5860 5863 5866 5870 5872 5875 5877 5879 5881 5883 5885 5887 5890 5893 5895 5896 5898 5899 5898 5898 5899 5901 5904 5907 5910 5912 5914 5916 5918 5920 5921 5923 5925 5926 5928 5929 5930 5931 5932 5933 5933 5934 5934 5934 5935 5935 5935 5935 5935 5935 5934 5934 5935 5935 5935 5935 5935 5936
5846 5848 5849 5852 5854 5857 5861 5864 5867 5870 5872 5874 5876 5879 5881 5883 5885 5888 5890 5892 5893 5895 5896 5897 5897 5899 5901 5903 5906 5908 5911 5912 5914 5916 5918 5920 5921 5923 5924 5926 5927 5928 5929 5930 5931 5932 5932 5932 5933 5933 5933 5933 5933 5933 5933 5933 5933 5933 5933 5933 5933 5933 5934
5843 5845 5847 5850 5853 5856 5860 5862 5865 5867 5869 5872 5874 5876 5879 5881 5884 5887 5888 5890 5891 5892 5893 5894 5896 5898 5900 5902 5905 5907 5909 5911 5913 5914 5916 5918 5919 5921 5922 5924 5925 5926 5927 5928 5929 5929 5930 5931 5931 5931 5931 5931 5931 5931 5931 5931 5931 5931 5931 5931 5932 5932 5932
5841 5843 5846 5849 5852 5855 5858 5860 5863 5865 5867 5869 5872 5875 5877 5880 5883 5885 5887 5888 5889 5890 5891 5893 5895 5897 5899 5901 5903 5905 5907 5909 5911 5913 5914 5916 5917 5918 5920 5921 5922 5924 5924 5925 5926 5927 5928 5928 5929 5929 5929 5929 5929 5929 5929 5930 5930 5930 5930 5930 5930 5931 5931
5840 5842 5845 5848 5851 5853 5856 5858 5861 5863 5866 5868 5870 5873 5876 5879 5881 5884 5886 5887 5888 5889 5891 5892 5894 5896 5898 5900 5902 5904 5906 5908 5909 5911 5912 5913 5915 5916 5917 5919 5920 5921 5922 5923 5924 5925 5926 5926 5926 5927 5927 5927 5928 5928 5928 5928 5928 5928 5929 5929 5929 5930 5930
5839 5841 5844 5846 5849 5851 5854 5857 5860 5862 5864 5866 5868 5871 5874 5877 5880 5882 5884 5886 5887 5889 5890 5892 5894 5896 5897 5899 5901 5902 5904 5906 5907 5908 5910 5911 5912 5913 5915 5916 5918 5919 5920 5921 5922 5922 5923 5924 5924 5925 5925 5925 5926 5926 5926 5926 5926 5927 5927 5927 5928 5928 5929
5837 5840 5842 5845 5847 5849 5852 5855 5857 5860 5862 5864 5866 5869 5872 5875 5877 5879 5882 5883 5885 5887 5889 5891 5893 5895 5896 5898 5899 5901 5902 5904 5905 5906 5907 5908 5909 5910 5912 5914 5915 5916 5917 5918 5919 5920 5921 5922 5922 5923 5923 5923 5924 5924 5924 5925 5925 5925 5925 5925 5926 5926 5927
5835 5837 5839 5842 5845 5847 5849 5852 5854 5856 5859 5862 5864 5866 5869 5871 5874 5876 5878 5880 5883 5885 5887 5889 5891 5893 5894 5896 5897 5899 5900 5901 5903 5904 5905 5906 5906 5908 5909 5911 5913 5914 5914 5915 5917 5918 5919 5919 5920 5920 5921 5921 5922 5922 5923 5923 5923 5924 5924 5924 5924 5924 5925
5833 5834 5837 5840 5843 5845 5847 5849 5851 5854 5857 5859 5862 5864 5866 5868 5871 5873 5875 5878 5880 5882 5884 5886 5888 5890 5892 5894 5895 5897 5898 5899 5900 5901 5902 5902 5903 5905 5907 5908 5909 5911 5912 5913 5914 5915 5916 5916 5917 5918 5919 5919 5920 5921 5921 5922 5922 5922 5922 5922 5922 5922 5923
5829 5831 5834 5837 5840 5842 5844 5846 5849 5852 5855 5857 5860 5862 5864 5866 5868 5870 5873 5875 5877 5879 5881 5883 5885 5888 5890 5891 5893 5894 5895 5897 5897 5898 5898 5899 5900 5902 5904 5905 5906 5908 5909 5910 5911 5912 5913 5914 5915 5915 5916 5917 5918 5919 5920 5920 5921 5921 5921 5921 5920 5919 5920
5826 5828 5831 5834 5837 5840 5842 5844 5847 5850 5852 5854 5857 5859 5861 5863 5865 5867 5870 5872 5874 5876 5878 5881 5883 5885 5887 5889 5890 5892 5893 5894 5895 5895 5895 5895 5897 5899 5900 5902 5903 5904 5906 5907 5908 5910 5910 5911 5912 5913 5913 5914 5915 5916 5917 5918 5919 5919 5920 5920 5919 5919 5918
5825 5826 5829 5832 5835 5837 5840 5842 5844 5846 5849 5851 5853 5855 5858 5860 5862 5864 5866 5869 5871 5873 5875 5878 5880 5882 5884 5886 5888 5889 5890 5891 5892 5893 5892 5892 5894 5895 5897 5898 5900 5901 5902 5904 5905 5907 5908 5909 5909 5910 5911 5912 5913 5914 5915 5916 5916 5917 5917 5918 5917 5917 5917
5823 5824 5826 5829 5832 5835 5837 5840 5841 5843 5845 5848 5850 5852 5854 5856 5858 5860 5863 5865 5867 5870 5872 5875 5877 5879 5880 5883 5884 5886 5887 5888 5889 5890 5890 5890 5891 5892 5893 5895 5896 5897 5899 5900 5902 5903 5904 5905 5907 5908 5909 5910 5911 5912 5913 5914 5914 5914 5914 5914 5914 5914 5914
5820 5822 5824 5827 5830 5832 5834 5836 5838 5839 5842 5845 5847 5849 5851 5853 5855 5858 5860 5862 5864 5866 5869 5871 5873 5875 5876 5879 5881 5882 5884 5885 5886 5887 5888 5888 5889 5890 5891 5892 5892 5894 5895 5896 5898 5899 5900 5902 5904 5905 5906 5907 5908 5909 5910 5910 5911 5911 5911 5910 5910 5910 5910
5818 5820 5822 5825 5827 5829 5832 5833 5834 5836 5839 5842 5845 5846 5848 5850 5852 5855 5857 5859 5861 5863 5865 5867 5869 5870 5872 5875 5877 5879 5881 5882 5884 5885 5885 5886 5886 5887 5888 5889 5890 5891 5892 5893 5894 5895 5897 5899 5900 5902 5903 5904 5905 5905 5906 5906 5907 5907 5907 5906 5906 5906 5906
5815 5817 5820 5823 5825 5827 5829 5831 5832 5834 5837 5840 5841 5843 5845 5847 5849 5851 5853 5855 5857 5859 5861 5863 5865 5867 5869 5871 5873 5876 5878 5879 5880 5882 5883 5883 5884 5885 5886 5887 5887 5888 5889 5890 5891 5892 5894 5895 5897 5898 5899 5900 5901 5902 5902 5903 5903 5903 5903 5903 5903 5903 5902
5812 5814 5817 5820 5823 5824 5826 5829 5830 5832 5835 5837 5839 5840 5842 5844 5846 5848 5850 5852 5854 5856 5857 5859 5861 5863 5865 5867 5870 5872 5874 5875 5877 5879 5880 5880 5881 5882 5883 5884 5884 5885 5886 5888 5889 5890 5891 5892 5893 5895 5896 5897 5897 5898 5899 5899 5900 5900 5899 5899 5899 5900 5900
5807 5809 5813 5816 5819 5820 5823 5825 5828 5830 5833 5835 5837 5838 5839 5841 5844 5845 5847 5849 5851 5853 5855 5856 5858 5860 5862 5864 5866 5868 5870 5871 5873 5875 5876 5878 5878 5879 5880 5881 5881 5882 5884 5885 5886 5887 5888 5889 5890 5891 5892 5893 5894 5894 5895 5896 5896 5896 5896 5896 5896 5897 5896
5802 5805 5808 5812 5815 5817 5819 5821 5824 5828 5830 5832 5834 5835 5837 5839 5841 5843 5845 5847 5848 5850 5852 5854 5856 5857 5859 5860 5862 5864 5866 5867 5869 5871 5872 5874 5875 5876 5877 5878 5878 5879 5881 5882 5883 5884 5885 5886 5887 5887 5888 5889 5890 5890 5891 5891 5891 5891 5892 5893 5893 5893 5892
5799 5801 5804 5807 5811 5814 5816 5817 5820 5824 5827 5829 5831 5832 5834 5836 5838 5840 5843 5844 5846 5847 5849 5850 5852 5854 5856 5857 5859 5860 5862 5863 5865 5866 5868 5870 5871 5872 5873 5874 5875 5876 5878 5879 5880 5881 5882 5883 5883 5884 5885 5885 5886 5886 5887 5886 5886 5886 5888 5889 5889 5888 5888
5796 5798 5800 5803 5807 5810 5812 5814 5817 5820 5823 5825 5827 5829 5831 5833 5835 5837 5839 5841 5843 5844 5845 5846 5849 5851 5853 5854 5855 5857 5858 5860 5861 5863 5864 5865 5866 5868 5869 5870 5872 5873 5874 5875 5876 5877 5878 5878 5879 5879 5880 5881 5882 5882 5882 5881 5881 5882 5883 5883 5883 5883 5883
5792 5794 5797 5799 5803 5806 5808 5810 5813 5816 5818 5821 5824 5826 5828 5830 5832 5834 5836 5838 5839 5840 5841 5843 5845 5847 5849 5850 5852 5853 5855 5856 5858 5859 5860 5861 5862 5863 5865 5867 5868 5869 5870 5871 5872 5873 5874 5874 5874 5874 5875 5876 5877 5877 5876 5876 5876 5876 5876 5876 5876 5877 5876
5788 5790 5793 5796 5799 5802 5804 5806 5808 5811 5814 5817 5819 5822 5824 5826 5828 5830 5832 5834 5836 5837 5838 5839 5841 5843 5845 5847 5848 5849 5851 5852 5854 5855 5856 5857 5858 5859 5861 5862 5863 5864 5866 5867 5868 5868 5869 5869 5869 5869 5870 5871 5871 5871 5871 5871 5871 5870 5870 5870 5870 5869 5869
5783 5786 5789 5792 5795 5797 5800 5802 5804 5807 5809 5812 5815 5817 5819 5822 5824 5826 5828 5830 5832 5834 5835 5836 5837 5839 5841 5843 5844 5845 5847 5848 5849 5850 5852 5853 5854 5855 5856 5858 5859 5860 5861 5862 5862 5863 5864 5864 5864 5864 5865 5865 5865 5865 5865 5865 5865 5864 5864 5864 5863 5863 5863
5779 5782 5785 5788 5791 5793 5796 5798 5800 5803 5805 5808 5810 5813 5815 5817 5819 5821 5823 5826 5827 5829 5831 5832 5833 5835 5837 5838 5840 5841 5842 5843 5844 5846 5847 5849 5850 5851 5852 5853 5854 5855 5856 5857 5858 5858 5858 5859 5859 5859 5859 5859 5860 5860 5859 5859 5859 5858 5858 5857 5856 5856 5856
5774 5778 5781 5783 5786 5789 5792 5794 5797 5799 5801 5804 5806 5808 5810 5812 5814 5816 5819 5821 5823 5825 5826 5828 5829 5830 5832 5833 5835 5836 5837 5838 5840 5841 5843 5844 5845 5847 5847 5848 5849 5850 5851 5851 5852 5853 5853 5853 5853 5854 5854 5854 5854 5853 5853 5853 5852 5852 5851 5851 5850 5850 5849
Wind_Speed
15 14 16 19 20 18 15 14 13 13 13 13 16 18 21 22 22 22 21 21 21 21 20 19 17 17 17 17 16 16 14 14 14 14 14 12 11 10 9 9 8 8 7 7 6 6 6 6 6 5 5 5 5 5 5 5 6 7 8 8 7 7 7
12 12 15 17 19 19 17 16 15 13 13 14 16 18 20 22 22 23 22 22 22 21 21 20 18 17 17 17 15 14 13 13 13 14 13 12 11 10 10 9 8 8 7 7 6 6 6 7 7 6 6 6 6 6 6 6 6 6 7 8 8 8 7
13 13 16 16 17 18 18 17 15 14 14 15 16 17 19 21 23 24 23 23 23 22 22 21 20 18 17 16 14 13 12 12 12 12 12 11 11 10 9 8 8 8 7 7 7 7 7 7 7 7 7 7 7 8 7 8 8 7 7 8 9 9 8
16 16 18 17 16 18 19 19 17 16 15 16 17 17 19 22 25 25 24 23 22 22 21 21 20 19 18 16 14 13 12 11 11 11 11 10 9 8 8 8 8 8 8 8 7 7 7 7 7 7 7 7 8 9 9 9 9 9 9 10 10 10 10
19 17 18 18 16 17 20 21 19 16 14 17 18 17 18 21 24 25 24 23 22 21 21 21 21 20 18 17 15 14 12 12 11 10 10 10 9 8 8 8 8 8 8 7 7 7 7 7 7 8 8 8 9 10 10 10 11 11 11 12 12 12 12
22 20 19 18 15 18 21 21 18 15 14 16 17 16 16 18 21 23 23 22 21 20 20 19 18 17 16 15 14 13 12 11 9 9 9 9 9 9 10 9 8 8 8 8 7 7 7 7 7 8 9 10 10 11 12 12 12 13 13 14 14 14 14
26 23 21 18 16 19 22 19 16 15 15 16 17 15 13 14 18 21 22 22 21 20 18 16 15 15 14 13 12 11 10 9 9 9 10 10 10 11 11 10 9 9 9 8 8 8 8 9 9 9 10 11 12 13 14 14 15 15 15 16 16 16 16
27 24 20 17 18 19 19 18 17 16 16 16 15 14 11 12 15 18 20 22 22 20 17 16 15 15 15 14 13 12 11 11 11 11 11 11 11 11 11 10 10 10 9 9 10 10 10 11 12 11 11 12 13 14 15 16 17 17 17 17 17 17 17
27 24 19 17 20 20 19 19 17 15 14 14 15 15 13 13 13 14 17 21 22 20 18 17 16 15 14 14 13 13 12 12 12 12 12 11 11 11 11 10 10 10 10 10 11 11 11 12 12 11 11 11 12 14 16 17 18 19 19 19 18 18 18
25 23 19 18 19 20 22 21 17 15 13 14 16 16 15 14 12 13 17 20 22 21 19 18 17 16 14 14 13 13 12 12 11 11 11 11 11 10 10 10 10 10 10 11 11 11 11 11 10 10 11 12 13 14 16 17 19 19 20 20 19 19 18
22 21 20 18 15 19 24 22 16 14 14 15 17 16 14 13 13 15 18 20 22 21 19 18 17 16 15 15 14 13 13 12 12 11 10 10 10 10 10 10 10 10 10 11 10 10 10 10 9 10 12 13 15 15 15 16 17 18 19 19 19 19 18
20 20 18 13 12 19 22 21 19 17 16 16 18 16 14 13 14 16 19 21 21 21 19 17 16 16 15 15 14 14 13 12 11 10 10 9 9 10 10 10 9 10 10 10 10 9 9 9 10 11 11 12 13 14 14 14 15 15 16 17 18 18 18
18 19 16 10 14 20 21 22 22 20 18 18 19 17 16 14 14 16 18 20 21 20 18 16 15 15 15 14 13 13 12 11 10 10 10 10 10 10 10 10 9 9 9 9 9 9 9 10 10 10 10 10 10 11 11 11 11 12 13 14 15 16 16
19 20 16 9 10 15 20 23 21 18 16 18 20 18 16 15 14 14 16 17 18 19 17 15 14 13 13 13 12 11 11 11 11 11 11 11 11 11 10 10 10 10 10 9 9 9 10 10 9 9 9 9 8 8 7 7 8 8 9 10 12 13 15
21 20 16 9 6 9 16 20 18 16 16 17 18 18 16 16 15 14 13 13 12 13 13 12 10 9 10 10 10 11 11 12 12 13 14 13 13 13 12 11 11 11 11 10 10 10 10 9 8 8 7 7 7 6 6 6 6 7 7 8 9 10 11
24 22 17 10 7 8 12 15 15 16 17 18 18 17 17 18 17 15 14 12 9 8 8 8 7 7 7 8 10 11 12 12 13 14 15 15 15 15 14 13 12 12 12 12 11 11 9 8 8 7 6 6 6 6 6 6 6 6 6 7 7 8 8
25 22 19 14 10 10 12 13 14 15 17 18 17 17 18 20 19 18 16 13 11 9 8 8 8 8 8 8 10 11 11 12 14 14 14 15 16 16 16 14 13 12 12 12 12 11 10 9 8 7 6 5 6 6 6 6 7 7 7 7 7 7 7
26 24 23 21 18 16 15 15 16 15 16 18 18 18 19 21 21 19 17 14 13 12 11 11 11 11 10 10 10 11 11 12 13 14 14 15 16 17 17 16 14 13 12 12 12 11 10 9 8 7 6 5 6 6 7 7 7 8 8 8 8 7 7
30 29 28 26 23 20 18 17 18 18 19 19 19 19 20 21 21 19 17 16 15 14 13 13 13 13 12 11 11 11 11 12 12 13 14 15 16 18 19 18 15 14 13 14 13 12 10 9 8 8 7 6 6 7 7 8 9 9 9 10 10 10 9
31 32 29 25 21 19 19 19 18 18 20 20 21 21 21 21 21 19 18 17 16 15 14 14 14 12 11 11 12 11 12 13 13 13 14 15 16 17 18 18 16 15 15 15 14 12 11 11 10 9 7 7 7 8 8 9 10 10 10 11 12 12 11
28 29 26 22 20 20 21 19 16 15 16 18 19 21 21 21 20 19 18 17 15 15 15 15 14 13 12 12 13 13 14 14 15 16 16 17 18 17 17 18 18 17 16 15 14 14 13 13 11 10 8 8 8 9 9 10 11 12 12 13 14 15 14
24 26 25 23 23 23 24 22 18 14 14 14 15 16 17 18 18 18 18 17 16 16 16 16 15 14 14 14 14 15 15 16 16 18 18 18 19 17 17 17 18 17 17 16 16 15 15 14 12 11 11 11 10 9 9 11 12 13 13 14 16 18 19
25 24 24 24 24 23 23 22 18 16 15 16 15 15 16 17 17 18 18 18 17 17 17 16 15 15 15 15 16 16 17 17 17 18 19 19 19 18 17 17 18 18 18 17 17 16 15 15 14 14 13 12 11 11 11 12 14 14 15 16 18 19 20
26 25 24 24 22 21 20 18 16 16 16 17 17 17 18 19 19 19 19 19 18 19 18 17 17 17 17 17 18 18 18 19 18 17 18 19 19 19 18 18 18 18 18 18 18 17 17 17 17 16 15 13 12 12 13 14 15 15 16 17 19 20 20
27 27 26 24 22 21 19 17 16 16 17 18 19 20 21 21 21 21 21 21 21 21 20 20 20 21 20 19 20 20 20 20 19 17 16 17 18 19 19 19 19 19 19 19 19 18 18 18 17 16 15 14 13 13 13 14 16 17 17 18 20 21 22
30 29 27 25 24 22 21 19 18 19 19 19 19 20 20 20 20 20 20 21 22 22 22 23 24 25 24 22 22 22 21 20 19 17 16 17 18 19 19 20 20 20 20 20 20 20 19 18 17 16 15 15 15 15 16 16 18 19 20 21 23 23 24
31 30 28 27 26 25 23 22 21 21 20 19 19 20 20 20 19 19 19 20 21 21 22 24 26 26 26 24 24 23 22 21 20 18 18 19 19 19 19 20 21 21 21 21 21 20 20 19 18 17 16 16 16 17 18 20 21 21 23 24 26 26 27
33 32 31 30 29 28 26 24 23 23 21 20 20 21 21 20 20 19 20 20 21 21 22 23 24 25 25 25 25 24 24 23 22 19 19 20 20 20 20 21 22 22 22 22 21 21 20 20 19 18 17 18 19 19 20 21 21 21 22 24 25 26 27
36 36 34 33 32 31 29 27 26 26 24 22 22 22 22 21 21 20 21 20 20 21 21 21 22 22 23 25 26 26 26 26 24 22 21 21 22 21 21 22 22 23 23 22 22 21 21 20 20 20 20 20 21 21 21 21 21 22 23 24 25 26 27
38 39 38 37 35 34 32 30 28 27 26 24 23 23 23 23 22 21 21 21 20 21 21 20 21 21 22 23 25 27 28 28 26 24 23 24 25 24 23 24 25 25 24 23 23 23 22 22 22 22 22 22 22 22 23 23 23 25 26 26 27 27 28
39 41 41 40 38 36 34 32 30 28 28 27 26 26 25 24 23 23 22 22 22 22 22 22 22 22 22 23 24 26 27 27 27 26 26 27 28 26 25 27 28 27 26 25 25 25 24 23 24 24 23 23 23 24 24 25 25 27 27 27 28 29 30
39 41 41 42 41 38 37 36 33 31 30 29 29 28 27 26 25 24 24 24 24 24 25 25 24 24 24 24 24 25 26 27 27 28 28 29 30 29 29 30 30 29 28 27 27 27 26 26 26 26 25 25 25 25 26 27 29 30 29 28 29 31 32
40 40 41 42 42 41 39 38 36 35 33 32 31 30 29 28 27 26 26 26 26 27 28 27 26 25 25 25 25 26 26 27 28 29 29 30 31 32 31 31 30 29 29 29 29 28 29 29 29 28 28 28 27 28 30 31 32 32 32 31 32 33 34
40 40 41 41 42 42 41 41 39 37 36 34 33 32 31 30 29 28 27 27 28 28 29 29 28 27 26 27 27 27 27 28 29 29 30 31 32 32 32 31 31 30 30 29 29 29 30 31 31 31 31 31 31 32 34 34 35 35 36 36 37 37 38
42 42 41 41 42 42 42 42 41 39 38 37 36 35 34 32 31 30 29 29 28 29 30 31 30 29 28 29 29 29 29 29 30 30 31 31 32 32 32 32 32 31 31 30 31 31 32 33 33 34 34 34 35 36 37 37 38 39 40 41 41 42 42
44 43 43 42 42 42 42 42 42 41 40 39 38 37 36 35 34 33 32 31 31 31 31 32 32 31 31 30 30 30 30 30 30 31 32 32 33 34 34 34 33 33 32 33 33 34 34 35 36 36 36 36 37 38 39 40 41 42 42 43 44 44 45
47 46 45 44 44 43 43 43 43 43 42 41 40 39 38 38 37 36 35 35 34 33 34 34 34 33 33 32 32 32 32 32 32 33 33 33 34 35 35 35 35 35 35 35 36 36 37 38 38 39 39 40 40 41 41 42 43 44 44 45 46 46 47
48 48 47 46 45 44 43 43 44 44 43 43 42 40 40 39 39 39 38 38 37 36 36 36 36 36 35 35 35 35 35 35 35 35 35 35 35 36 37 37 37 37 38 38 38 39 39 40 41 41 42 42 43 43 44 44 45 46 47 47 48 49 50
Wind_Direction
212 216 223 227 239 243 237 237 240 245 249 243 232 227 223 219 216 214 212 212 213 210 206 202 201 203 207 213 216 216 215 211 210 213 215 215 214 213 214 218 222 224 230 238 247 253 258 266 275 281 281 285 294 303 316 329 339 342 343 349 351 345 335
231 221 223 226 238 241 234 231 232 237 243 242 235 229 225 220 217 217 214 210 209 207 202 198 195 197 203 208 211 212 211 210 212 215 217 218 217 218 221 225 229 229 230 236 242 246 252 260 269 276 277 276 281 287 294 305 315 325 330 337 344 347 343
240 223 222 225 232 232 229 226 227 232 239 241 235 229 226 221 218 219 217 212 208 205 200 195 192 191 196 201 204 206 208 209 212 216 219 221 220 221 224 228 231 231 230 232 234 238 245 254 263 270 274 275 278 282 285 291 298 305 312 319 328 335 340
238 223 224 224 222 222 222 221 223 226 232 237 233 226 225 222 220 219 219 216 212 206 200 193 190 189 189 192 196 199 202 204 208 215 221 225 225 222 222 224 227 229 230 231 229 230 236 246 259 268 274 275 276 280 283 286 290 294 297 300 307 316 325
241 229 228 227 219 217 218 218 219 219 225 233 231 225 224 224 223 222 221 219 215 210 203 196 191 189 188 188 190 192 196 200 204 210 220 228 232 230 227 223 224 228 230 229 227 228 234 243 257 269 276 278 279 282 285 286 286 288 289 290 292 298 306
244 233 231 231 219 211 214 213 213 216 222 229 229 227 228 228 227 227 225 222 218 214 208 200 193 190 188 187 188 190 192 195 200 205 214 224 230 235 236 230 225 227 230 233 237 241 247 253 259 269 277 282 284 283 284 285 285 285 286 286 285 287 292
241 231 229 232 214 206 211 207 204 214 218 217 219 223 230 233 232 231 229 224 221 216 208 200 191 185 184 186 189 191 191 193 196 200 204 209 216 224 232 233 230 233 237 243 251 257 263 268 269 272 276 279 281 281 281 281 281 281 281 281 281 282 284
241 235 230 221 202 200 207 204 202 212 216 214 215 214 218 226 228 229 228 225 222 215 205 196 189 185 185 188 190 191 193 196 195 195 197 197 202 211 220 228 233 239 247 253 261 267 272 276 277 277 276 276 277 277 278 277 277 277 276 276 277 278 280
244 244 238 217 204 204 208 208 207 210 212 213 212 205 201 206 217 225 224 223 221 213 201 192 187 187 189 190 192 195 198 200 197 196 197 197 200 207 214 223 233 243 253 261 269 276 278 279 280 280 281 280 277 275 273 272 271 272 271 272 273 275 278
246 249 246 232 215 204 203 206 207 207 207 205 202 200 199 202 213 225 223 221 221 215 202 192 187 187 190 192 196 200 201 202 202 202 204 206 211 217 224 233 245 254 262 270 276 279 280 278 279 282 284 284 281 277 273 271 270 270 271 271 273 274 277
241 243 243 240 220 197 198 203 204 207 207 200 196 196 204 212 221 229 224 218 220 218 206 194 189 188 192 196 199 202 203 204 206 210 214 220 227 234 242 251 260 266 269 271 273 273 273 274 276 280 282 282 283 283 281 278 275 274 273 273 274 274 276
235 238 243 236 196 182 191 198 202 207 205 199 197 198 209 223 230 233 226 216 216 218 211 200 194 192 195 200 204 205 205 207 211 217 224 232 240 246 253 260 265 267 266 266 266 265 265 268 275 283 285 283 283 284 286 286 283 280 278 276 276 275 275
232 240 247 220 174 172 180 190 199 205 202 196 196 199 209 221 230 234 227 215 212 214 211 206 201 199 201 204 207 208 209 212 218 225 233 240 247 252 255 259 262 262 260 259 259 258 259 266 278 287 289 287 286 285 285 287 286 283 280 277 275 274 274
227 236 247 224 176 170 176 187 200 206 205 201 197 199 207 216 225 231 226 216 210 208 208 209 207 207 210 209 209 211 217 224 230 237 242 244 249 252 252 254 254 253 253 252 251 250 255 267 281 289 289 289 292 291 286 281 282 284 282 280 277 275 274
227 236 244 231 188 166 173 187 200 207 212 213 204 198 204 216 222 224 222 218 212 205 207 211 211 212 217 214 211 214 223 232 238 245 249 249 249 249 248 249 248 247 248 246 244 246 254 268 281 285 287 290 292 291 288 286 288 291 292 291 288 285 283
224 235 241 235 212 191 188 192 196 202 211 217 210 199 202 213 220 223 221 217 213 208 210 217 218 218 221 224 224 225 232 242 248 251 253 251 249 247 245 246 247 247 246 245 244 247 255 268 278 280 283 286 289 289 289 293 295 297 296 295 297 300 299
223 233 240 241 232 222 217 211 207 209 213 217 215 205 202 210 217 224 225 221 216 216 217 219 222 224 227 234 241 245 250 257 261 262 258 253 250 247 245 246 248 249 248 248 248 250 256 265 273 277 278 279 284 288 290 296 302 303 301 298 299 303 305
217 225 232 236 238 236 230 221 216 216 218 221 221 216 212 212 215 220 223 221 218 220 221 217 215 221 230 237 246 257 263 264 264 265 262 256 250 247 245 245 248 250 249 249 250 251 255 263 267 272 275 275 280 286 294 303 308 310 310 308 306 305 307
210 215 223 229 234 236 233 225 217 212 214 218 221 222 221 218 217 218 220 220 218 218 219 216 213 218 230 239 245 255 264 267 265 265 265 261 254 248 246 246 248 250 249 247 249 252 256 261 263 265 269 274 280 287 296 302 306 308 308 308 307 307 312
218 219 225 232 233 233 234 232 224 214 210 212 215 218 221 221 222 224 224 224 223 220 220 221 220 224 235 247 254 257 261 266 269 269 267 263 257 251 248 246 246 247 248 247 250 255 258 259 259 262 267 273 280 287 292 296 299 301 300 299 300 302 309
231 230 235 242 242 240 240 237 232 222 215 214 215 217 220 223 225 228 229 230 230 228 229 230 231 235 242 252 261 263 262 265 270 274 271 262 256 252 246 243 243 244 246 249 252 254 255 257 260 264 267 267 270 276 281 284 289 293 294 295 296 298 305
238 236 235 237 237 237 240 240 238 234 229 226 225 225 227 229 230 233 235 236 237 237 237 236 237 242 247 254 262 265 265 267 271 278 276 262 252 248 242 239 240 241 244 247 250 253 255 257 260 263 263 263 267 274 275 274 276 279 281 283 287 294 302
235 236 233 234 234 232 233 233 231 232 237 240 239 235 235 236 236 237 238 239 240 242 242 242 243 246 250 257 262 262 263 266 272 279 277 261 247 242 239 236 235 239 242 244 248 251 253 253 253 254 257 262 269 276 276 275 276 275 273 272 274 280 287
233 237 236 237 238 237 233 227 220 220 228 238 243 243 242 242 241 240 240 241 243 244 245 246 249 252 254 257 259 258 258 263 271 278 273 257 245 238 235 233 232 234 239 243 245 246 246 244 246 249 254 260 266 271 273 276 279 278 275 273 272 274 277
229 234 237 237 238 238 236 233 229 222 218 224 235 240 240 241 241 242 243 244 244 245 246 248 251 254 254 253 252 252 254 259 269 276 268 254 245 238 234 231 230 231 235 240 242 242 240 239 241 245 250 253 257 261 265 269 275 277 278 276 274 274 276
224 229 233 236 238 237 235 235 234 226 216 218 226 231 234 237 237 239 241 243 244 245 245 247 248 250 250 247 244 245 249 254 263 271 265 251 244 240 235 233 233 233 234 237 239 240 239 239 239 239 241 246 252 258 263 266 269 272 275 275 275 275 276
224 227 229 231 234 233 232 232 231 225 220 221 226 230 233 234 235 236 237 238 240 241 241 241 242 243 245 243 240 240 245 250 256 263 262 251 244 241 239 238 238 238 237 237 238 239 241 242 241 239 241 248 255 261 265 267 268 268 268 269 271 273 276
227 229 229 229 230 230 228 229 230 229 227 226 227 228 230 230 231 232 230 230 232 233 234 233 234 236 238 237 236 237 241 246 250 255 256 251 245 244 243 243 243 242 241 240 240 241 242 244 245 246 249 253 257 260 263 265 267 267 266 266 268 271 275
227 229 229 229 229 230 228 228 229 231 230 228 226 227 227 227 228 228 227 227 226 227 228 229 230 232 233 233 233 234 237 242 246 248 249 247 244 242 242 243 244 244 243 243 242 242 243 245 248 251 253 256 258 261 263 263 264 266 266 267 269 272 275
224 226 227 228 230 232 231 231 231 231 231 230 228 228 228 227 227 228 228 229 228 227 229 229 230 231 232 232 233 233 236 240 243 243 243 242 241 241 241 242 244 244 245 245 245 245 245 247 250 254 257 259 262 263 264 264 264 264 265 267 270 273 275
222 224 226 228 231 232 232 233 234 233 231 230 230 231 230 229 229 229 229 230 231 231 231 231 231 231 231 231 232 233 235 238 239 239 238 238 239 240 240 242 244 245 246 247 247 248 248 248 252 256 259 261 263 265 267 269 269 269 270 273 276 278 281
221 223 225 228 230 232 234 236 237 235 233 231 231 232 233 232 232 232 230 231 232 234 236 235 234 233 232 232 232 232 233 234 235 235 235 235 236 237 238 241 244 246 247 248 248 250 251 251 254 257 260 262 264 267 270 271 272 274 276 278 279 280 282
220 222 224 227 229 231 235 238 239 238 237 235 232 233 234 234 234 233 232 232 233 235 238 239 237 236 236 236 235 235 234 235 235 235 234 234 235 237 238 241 244 246 247 248 249 251 252 253 255 258 259 260 263 265 267 269 272 274 276 276 276 276 277
220 220 222 224 227 229 233 237 239 240 240 240 237 236 236 236 235 234 233 232 233 235 238 240 239 237 236 237 237 237 236 237 238 238 238 238 239 240 239 241 244 246 248 249 251 252 253 255 257 259 259 260 261 263 266 269 271 273 273 273 273 272 273
221 220 220 222 225 226 229 234 238 240 241 242 242 241 241 240 239 237 236 235 235 236 239 240 240 238 236 236 238 238 238 238 240 241 243 244 245 244 243 243 245 247 248 250 252 254 255 257 259 261 263 264 265 267 269 271 272 273 274 275 275 276 276
223 221 221 222 223 225 227 231 236 239 241 242 243 244 244 244 244 242 241 239 238 238 240 242 242 241 240 239 240 240 241 241 242 243 245 247 248 247 246 246 248 249 250 251 253 255 258 260 262 265 267 268 269 270 271 273 274 275 276 277 278 279 280
226 224 223 223 224 226 227 229 233 237 240 242 243 244 245 245 245 245 244 242 240 240 240 242 243 242 242 242 242 243 244 244 245 246 247 248 249 250 250 250 251 252 253 253 255 257 260 262 264 267 268 269 271 272 273 274 275 276 277 278 279 280 281
229 228 226 226 227 228 228 229 231 234 237 240 242 244 244 244 245 245 245 244 243 241 240 241 242 242 242 243 243 244 244 246 247 249 250 250 250 251 251 252 252 252 253 254 256 258 261 263 265 267 269 270 271 272 273 274 275 276 277 278 279 280 281